AEE104 LGAV-LGTS

Flight info

Callsign AEE104
Flight time 0h 42m
Altitude 32000
Route KRO UT162 NEVRA UT514 OSMOS
Aircraft A320/M-SDE3FGHIRWY/LB1

Departure

Time 2026-05-07 05:43
Airport Athens Eleftherios Venizelos International Airport (LGAV)

Arrival

Time 2026-05-07 06:25
Airport Thessaloniki Macedonia International Airport (LGTS)
Time Latitude Longitude Altitude Speed Heading
2026-05-07 05:21 37.93838 23.95055 295 ft 0 kts 306°
2026-05-07 05:34 37.93826 23.95076 274 ft 4 kts 306°
2026-05-07 05:34 37.93811 23.95102 295 ft 2 kts 306°
2026-05-07 05:35 37.93797 23.95124 297 ft 4 kts 319°
2026-05-07 05:35 37.93775 23.95143 297 ft 4 kts 339°
2026-05-07 05:35 37.93770 23.95145 296 ft 0 kts 340°
2026-05-07 05:37 37.93771 23.95145 293 ft 0 kts 340°
2026-05-07 05:37 37.93785 23.95147 297 ft 6 kts 14°
2026-05-07 05:37 37.93829 23.95185 297 ft 9 kts 40°
2026-05-07 05:38 37.93866 23.95254 298 ft 10 kts 66°
2026-05-07 05:38 37.93897 23.95347 296 ft 12 kts 68°
2026-05-07 05:38 37.93959 23.95429 297 ft 14 kts 35°
2026-05-07 05:38 37.94043 23.95508 297 ft 16 kts 38°
2026-05-07 05:39 37.94137 23.95601 299 ft 18 kts 37°
2026-05-07 05:39 37.94242 23.95698 301 ft 20 kts 35°
2026-05-07 05:39 37.94359 23.95809 300 ft 22 kts 38°
2026-05-07 05:39 37.94483 23.95930 303 ft 23 kts 37°
2026-05-07 05:40 37.94617 23.96060 303 ft 25 kts 37°
2026-05-07 05:40 37.94762 23.96190 306 ft 26 kts 38°
2026-05-07 05:40 37.94909 23.96333 307 ft 27 kts 37°
2026-05-07 05:40 37.95059 23.96476 311 ft 27 kts 36°
2026-05-07 05:41 37.95171 23.96582 310 ft 17 kts 37°
2026-05-07 05:41 37.95232 23.96680 312 ft 15 kts 95°
2026-05-07 05:41 37.95249 23.96791 312 ft 15 kts 36°
2026-05-07 05:41 37.95304 23.96883 313 ft 14 kts 100°
2026-05-07 05:42 37.95246 23.96986 314 ft 14 kts 127°
2026-05-07 05:42 37.95188 23.97008 314 ft 10 kts 216°
2026-05-07 05:42 37.95079 23.96911 314 ft 44 kts 217°
2026-05-07 05:42 37.94635 23.96489 308 ft 112 kts 217°
2026-05-07 05:43 37.93869 23.95765 301 ft 161 kts 217°
2026-05-07 05:43 37.92937 23.94921 850 ft 161 kts 210°
2026-05-07 05:43 37.91937 23.94222 1535 ft 165 kts 207°
2026-05-07 05:43 37.90906 23.93563 2232 ft 167 kts 206°
2026-05-07 05:44 37.89816 23.92912 2723 ft 178 kts 204°
2026-05-07 05:44 37.88583 23.92743 3274 ft 186 kts 163°
2026-05-07 05:44 37.87575 23.93719 3864 ft 191 kts 128°
2026-05-07 05:44 37.86765 23.95097 4369 ft 201 kts 128°
2026-05-07 05:45 37.86139 23.96719 4842 ft 218 kts 97°
2026-05-07 05:45 37.86318 23.98726 5207 ft 244 kts 72°
2026-05-07 05:45 37.86941 24.00852 5662 ft 268 kts 72°
2026-05-07 05:45 37.87546 24.03142 6440 ft 279 kts 68°
2026-05-07 05:46 37.88665 24.05165 7273 ft 285 kts 41°
2026-05-07 05:46 37.90266 24.06659 8176 ft 287 kts 34°
2026-05-07 05:46 37.91887 24.08084 9091 ft 289 kts 33°
2026-05-07 05:46 37.93543 24.09540 10009 ft 291 kts 33°
2026-05-07 05:47 37.95246 24.11046 10476 ft 309 kts 33°
2026-05-07 05:47 37.97079 24.12670 10707 ft 333 kts 33°
2026-05-07 05:47 37.99036 24.14407 11052 ft 350 kts 33°
2026-05-07 05:47 38.01047 24.16199 11690 ft 356 kts 33°
2026-05-07 05:48 38.03059 24.17994 12377 ft 360 kts 33°
2026-05-07 05:48 38.05117 24.19834 13072 ft 364 kts 32°
2026-05-07 05:48 38.07203 24.21696 13789 ft 367 kts 32°
2026-05-07 05:48 38.09310 24.23582 14429 ft 371 kts 32°
2026-05-07 05:49 38.11431 24.25483 15043 ft 374 kts 32°
2026-05-07 05:49 38.13539 24.27377 15652 ft 377 kts 32°
2026-05-07 05:49 38.15699 24.29317 16235 ft 381 kts 32°
2026-05-07 05:49 38.17876 24.31270 16814 ft 384 kts 32°
2026-05-07 05:50 38.20077 24.33243 17432 ft 388 kts 32°
2026-05-07 05:50 38.22264 24.35207 18031 ft 391 kts 32°
2026-05-07 05:50 38.24500 24.37219 18600 ft 395 kts 32°
2026-05-07 05:50 38.26780 24.39205 19130 ft 396 kts 26°
2026-05-07 05:51 38.29320 24.40491 19659 ft 393 kts
2026-05-07 05:51 38.32027 24.40759 20199 ft 390 kts 352°
2026-05-07 05:51 38.34668 24.40023 20732 ft 389 kts 340°
2026-05-07 05:51 38.36371 24.39305 21075 ft 390 kts 339°
2026-05-07 05:52 38.38960 24.38205 21586 ft 393 kts 339°
2026-05-07 05:52 38.42418 24.36730 22238 ft 397 kts 339°
2026-05-07 05:52 38.45052 24.35608 22718 ft 400 kts 339°
2026-05-07 05:52 38.46844 24.34846 23050 ft 402 kts 339°
2026-05-07 05:53 38.49475 24.33728 23523 ft 405 kts 339°
2026-05-07 05:53 38.52161 24.32588 23943 ft 408 kts 339°
2026-05-07 05:53 38.54866 24.31442 24347 ft 410 kts 340°
2026-05-07 05:53 38.57585 24.30291 24742 ft 413 kts 340°
2026-05-07 05:54 38.60324 24.29133 25115 ft 415 kts 340°
2026-05-07 05:54 38.63077 24.27968 25505 ft 418 kts 340°
2026-05-07 05:54 38.65847 24.26790 25882 ft 420 kts 339°
2026-05-07 05:54 38.68627 24.25601 26270 ft 422 kts 339°
2026-05-07 05:55 38.71395 24.24415 26654 ft 425 kts 339°
2026-05-07 05:55 38.74213 24.23209 27049 ft 427 kts 339°
2026-05-07 05:55 38.77041 24.21999 27435 ft 430 kts 339°
2026-05-07 05:55 38.79896 24.20777 27814 ft 432 kts 339°
2026-05-07 05:56 38.82760 24.19548 28191 ft 435 kts 339°
2026-05-07 05:56 38.85639 24.18312 28537 ft 438 kts 339°
2026-05-07 05:56 38.88535 24.17067 28909 ft 440 kts 339°
2026-05-07 05:56 38.91450 24.15812 29273 ft 442 kts 339°
2026-05-07 05:57 38.94369 24.14556 29757 ft 442 kts 339°
2026-05-07 05:57 38.97248 24.13322 30292 ft 441 kts 339°
2026-05-07 05:57 39.00156 24.12079 30763 ft 439 kts 339°
2026-05-07 05:57 39.03056 24.10836 31250 ft 437 kts 339°
2026-05-07 05:58 39.05946 24.09591 31749 ft 435 kts 339°
2026-05-07 05:58 39.08818 24.08350 32244 ft 434 kts 339°
2026-05-07 05:58 39.11638 24.07130 32738 ft 432 kts 339°
2026-05-07 05:58 39.14483 24.05899 33233 ft 430 kts 339°
2026-05-07 05:59 39.17322 24.04670 33730 ft 429 kts 339°
2026-05-07 05:59 39.20153 24.03446 34045 ft 428 kts 339°
2026-05-07 05:59 39.22983 24.02218 34101 ft 430 kts 338°
2026-05-07 06:00 39.28659 23.99711 34100 ft 430 kts 335°
2026-05-07 06:00 39.33797 23.95950 34102 ft 426 kts 324°
2026-05-07 06:01 39.38763 23.91726 34103 ft 427 kts 324°
2026-05-07 06:01 39.43737 23.87507 34102 ft 428 kts 324°
2026-05-07 06:02 39.48715 23.83274 34106 ft 428 kts 324°
2026-05-07 06:02 39.51210 23.81147 33885 ft 429 kts 324°
2026-05-07 06:02 39.53670 23.79049 33618 ft 429 kts 324°
2026-05-07 06:02 39.56165 23.76917 33351 ft 430 kts 324°
2026-05-07 06:03 39.58666 23.74773 33085 ft 431 kts 324°
2026-05-07 06:03 39.61174 23.72620 32823 ft 432 kts 324°
2026-05-07 06:03 39.63689 23.70464 32566 ft 433 kts 324°
2026-05-07 06:03 39.66216 23.68300 32301 ft 435 kts 324°
2026-05-07 06:04 39.68747 23.66135 32050 ft 436 kts 324°
2026-05-07 06:04 39.71249 23.63993 31610 ft 436 kts 324°
2026-05-07 06:04 39.73800 23.61802 30607 ft 442 kts 324°
2026-05-07 06:04 39.76390 23.59570 29455 ft 449 kts 324°
2026-05-07 06:05 39.79004 23.57316 28383 ft 452 kts 324°
2026-05-07 06:05 39.81636 23.55046 27480 ft 452 kts 324°
2026-05-07 06:05 39.84233 23.52806 26885 ft 444 kts 324°
2026-05-07 06:05 39.86802 23.50590 26162 ft 440 kts 324°
2026-05-07 06:06 39.89340 23.48399 25495 ft 435 kts 324°
2026-05-07 06:06 39.91819 23.46256 24827 ft 431 kts 324°
2026-05-07 06:06 39.94305 23.44101 24151 ft 427 kts 324°
2026-05-07 06:06 39.96774 23.41962 23411 ft 425 kts 324°
2026-05-07 06:07 39.99225 23.39836 22685 ft 420 kts 324°
2026-05-07 06:07 40.01646 23.37729 21996 ft 415 kts 324°
2026-05-07 06:07 40.04039 23.35643 21342 ft 411 kts 324°
2026-05-07 06:07 40.06379 23.33605 20703 ft 406 kts 324°
2026-05-07 06:08 40.08719 23.31566 20091 ft 402 kts 324°
2026-05-07 06:08 40.11038 23.29540 19497 ft 399 kts 324°
2026-05-07 06:08 40.13331 23.27532 18912 ft 395 kts 324°
2026-05-07 06:08 40.15619 23.25544 18345 ft 393 kts 325°
2026-05-07 06:09 40.17925 23.23653 17728 ft 389 kts 327°
2026-05-07 06:09 40.20233 23.21844 17154 ft 385 kts 328°
2026-05-07 06:09 40.22534 23.20079 16577 ft 381 kts 328°
2026-05-07 06:09 40.24808 23.18337 15998 ft 377 kts 328°
2026-05-07 06:10 40.27034 23.16620 15406 ft 374 kts 328°
2026-05-07 06:10 40.29407 23.15223 14823 ft 375 kts 342°
2026-05-07 06:10 40.31944 23.14427 14245 ft 374 kts 345°
2026-05-07 06:10 40.34482 23.13682 13624 ft 371 kts 346°
2026-05-07 06:11 40.36995 23.12942 12967 ft 369 kts 346°
2026-05-07 06:11 40.39482 23.12208 12255 ft 361 kts 346°
2026-05-07 06:11 40.41920 23.11482 11311 ft 357 kts 346°
2026-05-07 06:11 40.44334 23.10758 10426 ft 353 kts 346°
2026-05-07 06:12 40.46615 23.10065 10221 ft 327 kts 346°
2026-05-07 06:12 40.48753 23.09419 10097 ft 303 kts 346°
2026-05-07 06:12 40.50758 23.08814 9746 ft 290 kts 346°
2026-05-07 06:12 40.52714 23.08224 9180 ft 286 kts 346°
2026-05-07 06:13 40.54661 23.07631 8708 ft 287 kts 346°
2026-05-07 06:13 40.56604 23.07034 8401 ft 286 kts 346°
2026-05-07 06:13 40.58520 23.06443 8109 ft 285 kts 346°
2026-05-07 06:13 40.60452 23.05845 7789 ft 284 kts 346°
2026-05-07 06:14 40.62372 23.05246 7348 ft 284 kts 346°
2026-05-07 06:14 40.64289 23.04642 6915 ft 283 kts 345°
2026-05-07 06:14 40.66206 23.04037 6510 ft 282 kts 346°
2026-05-07 06:14 40.68115 23.03426 6077 ft 281 kts 345°
2026-05-07 06:15 40.70013 23.02817 5618 ft 279 kts 345°
2026-05-07 06:15 40.71894 23.02214 5233 ft 277 kts 345°
2026-05-07 06:15 40.73763 23.01611 4848 ft 275 kts 346°
2026-05-07 06:15 40.75615 23.01013 4457 ft 272 kts 346°
2026-05-07 06:16 40.77393 23.00434 4320 ft 260 kts 346°
2026-05-07 06:16 40.79106 22.99878 4194 ft 246 kts 346°
2026-05-07 06:16 40.80733 22.99348 4083 ft 236 kts 346°
2026-05-07 06:16 40.82319 22.98830 4007 ft 234 kts 345°
2026-05-07 06:17 40.83902 22.98312 4016 ft 234 kts 345°
2026-05-07 06:17 40.85484 22.97793 4013 ft 235 kts 346°
2026-05-07 06:17 40.87033 22.97134 4012 ft 234 kts 330°
2026-05-07 06:17 40.88252 22.95714 4004 ft 236 kts 302°
2026-05-07 06:18 40.88830 22.93713 4012 ft 234 kts 275°
2026-05-07 06:18 40.88749 22.91577 4018 ft 233 kts 255°
2026-05-07 06:18 40.88124 22.89644 4012 ft 232 kts 235°
2026-05-07 06:18 40.87023 22.88103 4011 ft 231 kts 215°
2026-05-07 06:19 40.85591 22.87164 4019 ft 231 kts 195°
2026-05-07 06:19 40.83996 22.86941 4014 ft 231 kts 175°
2026-05-07 06:19 40.82418 22.87364 4011 ft 232 kts 166°
2026-05-07 06:19 40.80849 22.87871 3999 ft 232 kts 166°
2026-05-07 06:20 40.79281 22.88374 4018 ft 232 kts 166°
2026-05-07 06:20 40.77732 22.88871 4009 ft 232 kts 167°
2026-05-07 06:20 40.76141 22.89381 4007 ft 231 kts 166°
2026-05-07 06:20 40.74593 22.89876 4003 ft 232 kts 166°
2026-05-07 06:21 40.73022 22.90379 3931 ft 232 kts 167°
2026-05-07 06:21 40.71453 22.90881 3694 ft 231 kts 167°
2026-05-07 06:21 40.69893 22.91380 3405 ft 230 kts 166°
2026-05-07 06:21 40.68351 22.91873 3095 ft 223 kts 166°
2026-05-07 06:22 40.66864 22.92347 2806 ft 216 kts 166°
2026-05-07 06:22 40.64037 22.93250 2253 ft 202 kts 166°
2026-05-07 06:22 40.62702 22.93676 2007 ft 191 kts 166°
2026-05-07 06:23 40.61455 22.94074 1745 ft 180 kts 166°
2026-05-07 06:23 40.60283 22.94447 1517 ft 165 kts 166°
2026-05-07 06:23 40.59229 22.94783 1307 ft 149 kts 166°
2026-05-07 06:23 40.58253 22.95096 1097 ft 141 kts 166°
2026-05-07 06:24 40.57308 22.95403 929 ft 139 kts 166°
2026-05-07 06:24 40.56372 22.95699 695 ft 137 kts 166°
2026-05-07 06:24 40.55445 22.95987 533 ft 136 kts 165°
2026-05-07 06:24 40.54527 22.96297 371 ft 136 kts 165°
2026-05-07 06:25 40.53604 22.96577 180 ft 136 kts 167°
2026-05-07 06:25 40.52697 22.96866 38 ft 135 kts 165°
2026-05-07 06:25 40.51967 22.97099 13 ft 67 kts 166°
2026-05-07 06:25 40.51675 22.97194 16 ft 33 kts 165°
2026-05-07 06:26 40.51559 22.97238 18 ft 16 kts 154°
2026-05-07 06:26 40.51515 22.97356 15 ft 12 kts 74°
2026-05-07 06:26 40.51588 22.97407 15 ft 14 kts 340°
2026-05-07 06:26 40.51695 22.97365 15 ft 17 kts 346°
2026-05-07 06:27 40.51825 22.97327 16 ft 21 kts 346°
2026-05-07 06:27 40.51981 22.97275 13 ft 25 kts 346°
2026-05-07 06:27 40.52152 22.97223 14 ft 24 kts 346°
2026-05-07 06:27 40.52286 22.97170 14 ft 17 kts 343°
2026-05-07 06:28 40.52368 22.97183 17 ft 13 kts 39°
2026-05-07 06:28 40.52358 22.97272 15 ft 10 kts 130°
2026-05-07 06:28 40.52332 22.97307 15 ft 5 kts 130°
2026-05-07 06:28 40.52347 22.97346 16 ft 6 kts 46°
2026-05-07 06:29 40.52385 22.97395 15 ft 8 kts 45°
2026-05-07 06:29 40.52429 22.97452 15 ft 8 kts 44°
2026-05-07 06:29 40.52447 22.97475 15 ft 0 kts 44°